Regional Weather Roundup
Issued by NWS Little Rock, AR

Home | Current Version | Previous Version | Text Only | Print | Product List | Glossary On
Versions: 1 2 3 4 5 6 7 8 9 10 11 12 13 14 15 16 17 18 19 20 21 22 23 24 25 26 27 28 29 30 31 32 33 34 35 36 37 38 39 40 41 42 43 44 45 46 47 48 49 50
000
ASUS44 KLZK 071305
RWRLZK

WEATHER ROUNDUP FOR ARKANSAS
NATIONAL WEATHER SERVICE LITTLE ROCK AR
700 AM CST SUN FEB 07 2016

NOTE: "FAIR" INDICATES FEW OR NO CLOUDS BELOW 12,000 FEET WITH NO
SIGNIFICANT WEATHER AND/OR OBSTRUCTIONS TO VISIBILITY.

ARZ001-003-010-029-071400-
NORTHWEST ARKANSAS

CITY           SKY/WX    TMP DP  RH WIND       PRES   REMARKS
FAYETTEVILLE   CLEAR     35  29  78 S8        30.15S WCI  29
FORT SMITH     CLEAR     30  24  78 N7        30.20R WCI  23
HARRISON       CLEAR     36  27  69 VRB3      30.12S
BENTONVILLE    CLEAR     36  27  69 SW6       30.13F
ROGERS         CLEAR     37  30  75 SW9       30.13S
SILOAM SPGS    CLEAR     34  21  60 S7        30.14F WCI  28
HIGHFILL       CLEAR     36  30  79 S9        30.12F
SPRINGDALE     CLEAR     37  30  75 SW12      30.15S
$$

ARZ004-005-016-071400-
NORTH CENTRAL ARKANSAS

CITY           SKY/WX    TMP DP  RH WIND       PRES   REMARKS
BATESVILLE     CLEAR     34  21  60 SW5       30.18F WCI  30
FLIPPIN        CLEAR     36  18  48 CALM      30.11F
MTN HOME       CLEAR     34  20  56 SW3       30.12F
$$

ARZ040-041-071400-
WEST CENTRAL ARKANSAS

CITY           SKY/WX    TMP DP  RH WIND       PRES   REMARKS
MENA           CLEAR     28  27  93 CALM      30.21S
MOUNT IDA      CLEAR     23  19  85 CALM      30.19F
$$

ARZ009-017-025-026-028-071400-
NORTHEAST ARKANSAS

CITY           SKY/WX    TMP DP  RH WIND       PRES   REMARKS
CORNING        FAIR      32  27  80 S9        30.16S WCI  24
JONESBORO      PTCLDY    32  25  75 S3        30.18F
NEWPORT        CLEAR     30  26  85 S8        30.20F WCI  22
WALNUT RIDGE   CLEAR     30  23  74 S10       30.17F WCI  21
BLYTHEVILLE    CLEAR     34  26  72 S8        30.21F WCI  27
$$

ARZ022-023-033-042-044-071400-
CENTRAL ARKANSAS

CITY           SKY/WX    TMP DP  RH WIND       PRES   REMARKS
LITTLE ROCK    PTCLDY    31  24  75 SW6       30.23F WCI  25
N LITTLE ROCK    N/A     35  25  67 SW5       30.23F WCI  31
JACKSONVILLE   CLEAR     26  22  86 CALM      30.20F
SEARCY         CLEAR     25  25 100 CALM      30.22F
HOT SPRINGS    CLEAR     27  24  89 CALM      30.23F
RUSSELLVILLE   CLEAR     26  22  84 CALM      30.20F
CLINTON        FAIR      23  21  93 CALM      30.21S
$$

ARZ036-071400-
EAST ARKANSAS

CITY           SKY/WX    TMP DP  RH WIND       PRES   REMARKS
WEST MEMPHIS   CLEAR     28  26  92 S7        30.23F WCI  21
$$

ARZ050-053-066-070-073-071400-
SOUTHWEST ARKANSAS

CITY           SKY/WX    TMP DP  RH WIND       PRES   REMARKS
ARKADELPHIA    FAIR      25  25 100 CALM      30.26F
CAMDEN         CLEAR     25  23  93 CALM      30.28R
TEXARKANA      CLEAR     37  33  85 S3        30.26S
EL DORADO      CLEAR     27  24  89 CALM      30.28R FOG
DE QUEEN       CLEAR     24  23  96 CALM      30.24F FOG
$$

ARZ056-057-069-071400-
SOUTHEAST ARKANSAS

CITY           SKY/WX    TMP DP  RH WIND       PRES   REMARKS
PINE BLUFF     CLEAR     31  24  75 CALM      30.26S
STUTTGART      CLEAR     36  25  64 S8        30.24F
MONTICELLO     CLEAR     33  26  75 W5        30.27S WCI  29

$$





USA.gov is the U.S. government's official web portal to all federal, state and local government web resources and services.